Flugplatz Rastatt (Baldenau) (UL)

Hier findest Du alle Informationen zum Flugplatz Rastatt (Baldenau) (UL).

Informationen für Piloten zum Flugplatz Rastatt (Baldenau)

Hier findest Du alle relevanten Informationen, die Du als Pilot benötigst, um Rastatt (Baldenau) anzufliegen.

Flugplatz: Rastatt (Baldenau) ICAO-Code: UL Flugplatz
Frequenz Turm: 122.475 Mhz GAFOR Gebiet: -
Frequenz Ground: 122.475 Mhz Mogas: nein
Platzrunde: N 1200 ft Landegebühr: -
Platzhöhe: Sunrise: 03:22 Uhr UTC
Pisten: 01/19 - 650 m x 30 m, GRAS Sunset: 19:36 Uhr UTC

Mitglieder, die in Rastatt (Baldenau) fliegen

Flugwetter am Flugplatz Rastatt (Baldenau)

Die METAR Information stammen aus EDSB (14.06 km entfernt).

METAR Code:
2024/04/22 05:50
EDSB 220550Z 03007KT CAVOK 02/00 Q1022

Flugschulen am Flugplatz Rastatt (Baldenau)

Am Flugplatz Rastatt (Baldenau) gibt es leider keine Flugschule.

Benachbarte Flugplätze und Flugschulen

Es gibt 10 weitere Flugplätze in einem Umkreis von 50 km um den Flugplatz Rastatt (Baldenau).

Jetzt anmelden

Passwort vergessen

Umfrage Archiv

Wie häufig haltet Ihr die Halbkreisflugregel ein?

Eher häufig!
36 %
Immer!
30.7 %
Hin und wieder!
16.7 %
Nie!
9.5 %
Eher selten!
7.2 %
Stimmen: 264 | Diskussion
Anzeige: Roland Aircraft
Statistik Alle Mitglieder

Aktuell sind 33 Besucher online, davon 1 Mitglied und 32 Gäste.


Mitglieder online:
Schmuddel65 

Anzeige: EasyVFR